When you browse on this site, cookies collect data to enhance your experience and personalize the content and advertising you see.
Visit our Privacy Policy to learn more. By continuing to use the site, you agree to this use of cookies and data.
  • In Hungary
  • List of Countries
  • For 7 days
  • Water Temperature
  • Satellite Maps
  • Weather Map
  • News
  • Weather Widgets
  • user-avatar
    Login

    Hourly Weather Chaudfontaine

    Today, 18 January, Friday

    Time Temperature Precipitation Wind Pressure Humidity
    00:00 -1°C° 0 mm 2 mps 748 mmHg 91%
    01:00 -2°C° 0 mm 2 mps 748 mmHg 91%
    02:00 -2°C° 0 mm 2 mps 748 mmHg 91%
    03:00 -2°C° 0 mm 2 mps 749 mmHg 92%
    04:00 0°C° 0 mm 1 mps 749 mmHg 91%
    05:00 0°C° 0 mm 1 mps 749 mmHg 91%
    06:00 -1°C° 0 mm 0 mps 750 mmHg 92%
    07:00 -1°C° 0 mm 0 mps 750 mmHg 89%
    08:00 0°C° 0 mm 0 mps 751 mmHg 86%
    09:00 +1°C° 0 mm 1 mps 751 mmHg 82%
    10:00 +2°C° 0 mm 1 mps 751 mmHg 75%
    11:00 +3°C° 0 mm 1 mps 751 mmHg 68%
    12:00 +4°C° 0 mm 1 mps 751 mmHg 60%
    13:00 +4°C° 0 mm 1 mps 751 mmHg 60%
    14:00 +4°C° 0 mm 1 mps 751 mmHg 61%
    15:00 +3°C° 0 mm 1 mps 751 mmHg 61%
    16:00 +3°C° 0 mm 1 mps 751 mmHg 65%
    17:00 +2°C° 0 mm 1 mps 751 mmHg 68%
    18:00 +1°C° 0 mm 1 mps 751 mmHg 72%
    19:00 +1°C° 0 mm 1 mps 751 mmHg 73%
    20:00 -1°C° 0 mm 2 mps 751 mmHg 74%
    21:00 -2°C° 0 mm 2 mps 751 mmHg 74%
    22:00 -2°C° 0 mm 2 mps 751 mmHg 76%
    23:00 -2°C° 0 mm 2 mps 750 mmHg 77%

    Tomorrow, 19 January, Saturday

    Time Temperature Precipitation Wind Pressure Humidity
    00:00 -2°C° 0 mm 2 mps 750 mmHg 78%
    01:00 -2°C° 0 mm 2 mps 750 mmHg 79%
    02:00 -2°C° 0 mm 2 mps 750 mmHg 79%
    03:00 -2°C° 0 mm 2 mps 749 mmHg 79%
    04:00 -2°C° 0 mm 2 mps 749 mmHg 79%
    05:00 -2°C° 0 mm 2 mps 749 mmHg 79%
    06:00 -2°C° 0 mm 2 mps 749 mmHg 79%
    07:00 -2°C° 0 mm 3 mps 749 mmHg 75%
    08:00 -1°C° 0 mm 3 mps 749 mmHg 70%
    09:00 -1°C° 0 mm 3 mps 749 mmHg 66%
    10:00 -1°C° 0 mm 4 mps 748 mmHg 60%
    11:00 0°C° 0 mm 4 mps 748 mmHg 54%
    12:00 +1°C° 0 mm 4 mps 748 mmHg 48%
    13:00 +2°C° 0 mm 3 mps 747 mmHg 50%
    14:00 +2°C° 0 mm 3 mps 747 mmHg 53%
    15:00 +2°C° 0 mm 2 mps 746 mmHg 55%
    16:00 +1°C° 0 mm 2 mps 746 mmHg 60%
    17:00 -1°C° 0 mm 3 mps 746 mmHg 66%
    18:00 -2°C° 0 mm 3 mps 746 mmHg 71%
    19:00 -2°C° 0 mm 3 mps 746 mmHg 73%
    20:00 -4°C° 0 mm 3 mps 746 mmHg 75%
    21:00 -3°C° 0 mm 2 mps 746 mmHg 76%
    22:00 -3°C° 0 mm 2 mps 746 mmHg 76%
    23:00 -3°C° 0 mm 2 mps 746 mmHg 76%

    Day after tomorrow, 20 January, Sunday

    Time Temperature Precipitation Wind Pressure Humidity
    00:00 -3°C° 0 mm 2 mps 746 mmHg 76%
    01:00 -1°C° 0 mm 1 mps 746 mmHg 74%
    02:00 -1°C° 0 mm 1 mps 746 mmHg 72%
    03:00 -1°C° 0 mm 1 mps 746 mmHg 70%
    04:00 -1°C° 0 mm 1 mps 746 mmHg 69%
    05:00 -1°C° 0 mm 1 mps 747 mmHg 68%
    06:00 -1°C° 0 mm 1 mps 747 mmHg 67%
    07:00 -1°C° 0 mm 1 mps 747 mmHg 64%
    08:00 0°C° 0 mm 1 mps 748 mmHg 60%
    09:00 0°C° 0 mm 1 mps 748 mmHg 57%
    10:00 +2°C° 0 mm 1 mps 748 mmHg 52%
    11:00 +3°C° 0 mm 1 mps 748 mmHg 47%
    12:00 +4°C° 0 mm 1 mps 749 mmHg 42%
    13:00 +4°C° 0 mm 1 mps 749 mmHg 46%
    14:00 +3°C° 0 mm 1 mps 749 mmHg 49%
    15:00 +3°C° 0 mm 1 mps 749 mmHg 52%
    16:00 +2°C° 0 mm 1 mps 750 mmHg 57%
    17:00 -2°C° 0 mm 2 mps 750 mmHg 61%
    18:00 -3°C° 0 mm 2 mps 751 mmHg 65%
    19:00 -1°C° 0 mm 1 mps 751 mmHg 65%
    20:00 -1°C° 0 mm 1 mps 752 mmHg 66%
    21:00 -1°C° 0 mm 1 mps 752 mmHg 66%
    22:00 -1°C° 0 mm 1 mps 753 mmHg 65%
    23:00 -1°C° 0 mm 1 mps 753 mmHg 64%

    21 January, Monday

    Time Temperature Precipitation Wind Pressure Humidity
    00:00 -1°C° 0 mm 1 mps 753 mmHg 64%
    01:00 -2°C° 0 mm 0 mps 753 mmHg 62%
    02:00 -2°C° 0 mm 0 mps 754 mmHg 60%
    03:00 -2°C° 0 mm 0 mps 754 mmHg 59%
    04:00 -2°C° 0 mm 0 mps 754 mmHg 58%
    05:00 -2°C° 0 mm 0 mps 754 mmHg 56%
    06:00 -2°C° 0 mm 0 mps 754 mmHg 55%
    07:00 -2°C° 0 mm 0 mps 754 mmHg 52%
    08:00 -1°C° 0 mm 0 mps 755 mmHg 49%
    09:00 -1°C° 0 mm 0 mps 755 mmHg 46%
    10:00 +1°C° 0 mm 0 mps 755 mmHg 43%
    11:00 +2°C° 0 mm 0 mps 754 mmHg 39%
    12:00 +4°C° 0 mm 1 mps 754 mmHg 35%
    13:00 +4°C° 0 mm 1 mps 754 mmHg 39%
    14:00 +3°C° 0 mm 1 mps 753 mmHg 42%
    15:00 +3°C° 0 mm 1 mps 753 mmHg 46%
    16:00 +2°C° 0 mm 1 mps 753 mmHg 48%
    17:00 +1°C° 0 mm 1 mps 752 mmHg 50%
    18:00 -2°C° 0 mm 2 mps 752 mmHg 53%
    19:00 -3°C° 0 mm 2 mps 752 mmHg 54%
    20:00 -4°C° 0 mm 3 mps 751 mmHg 55%
    21:00 -4°C° 0 mm 3 mps 751 mmHg 57%
    22:00 -4°C° 0 mm 3 mps 750 mmHg 57%
    23:00 -4°C° 0 mm 4 mps 749 mmHg 57%

    22 January, Tuesday

    Time Temperature Precipitation Wind Pressure Humidity
    00:00 -4°C° 0 mm 4 mps 749 mmHg 57%
    01:00 -4°C° 0 mm 5 mps 747 mmHg 58%
    02:00 -4°C° 0 mm 5 mps 746 mmHg 58%
    03:00 -4°C° 0 mm 6 mps 745 mmHg 58%
    04:00 -4°C° 0 mm 6 mps 744 mmHg 62%
    05:00 -3°C° 0 mm 7 mps 743 mmHg 66%
    06:00 -3°C° 0 mm 7 mps 742 mmHg 70%
    07:00 -3°C° 0.5 mm 7 mps 741 mmHg 74%
    08:00 -2°C° 0.5 mm 7 mps 740 mmHg 79%
    09:00 -2°C° 0.5 mm 7 mps 740 mmHg 84%
    10:00 -2°C° 0.7 mm 6 mps 739 mmHg 87%
    11:00 -1°C° 0.7 mm 5 mps 739 mmHg 89%
    12:00 -1°C° 0.7 mm 4 mps 738 mmHg 92%
    13:00 0°C° 0.1 mm 3 mps 738 mmHg 91%
    14:00 +1°C° 0.1 mm 2 mps 737 mmHg 90%
    15:00 +1°C° 0.1 mm 2 mps 737 mmHg 90%
    16:00 -1°C° 0 mm 2 mps 736 mmHg 90%
    17:00 -1°C° 0 mm 2 mps 736 mmHg 91%
    18:00 -2°C° 0 mm 2 mps 736 mmHg 92%
    19:00 -3°C° 0 mm 2 mps 735 mmHg 93%
    20:00 -3°C° 0 mm 2 mps 735 mmHg 94%
    21:00 -4°C° 0 mm 2 mps 735 mmHg 95%
    22:00 -4°C° 0 mm 2 mps 735 mmHg 94%
    23:00 -4°C° 0 mm 2 mps 734 mmHg 94%

    23 January, Wednesday

    Time Temperature Precipitation Wind Pressure Humidity
    00:00 -4°C° 0 mm 2 mps 734 mmHg 94%
    01:00 -2°C° 0 mm 1 mps 733 mmHg 94%
    02:00 -2°C° 0 mm 1 mps 733 mmHg 94%
    03:00 -1°C° 0 mm 1 mps 733 mmHg 93%
    04:00 -1°C° 0.1 mm 1 mps 732 mmHg 93%
    05:00 -1°C° 0.1 mm 1 mps 732 mmHg 93%
    06:00 -2°C° 0.1 mm 0 mps 732 mmHg 92%
    07:00 -2°C° 0.1 mm 0 mps 732 mmHg 91%
    08:00 -1°C° 0.1 mm 0 mps 732 mmHg 90%
    09:00 -1°C° 0.1 mm 0 mps 732 mmHg 88%
    10:00 +1°C° 0.2 mm 1 mps 732 mmHg 87%
    11:00 +1°C° 0.2 mm 1 mps 732 mmHg 85%
    12:00 +2°C° 0.2 mm 1 mps 732 mmHg 84%
    13:00 +2°C° 0 mm 1 mps 732 mmHg 85%
    14:00 +1°C° 0 mm 1 mps 732 mmHg 85%
    15:00 +1°C° 0 mm 1 mps 732 mmHg 86%
    16:00 +1°C° 0 mm 1 mps 732 mmHg 88%
    17:00 0°C° 0 mm 1 mps 733 mmHg 90%
    18:00 -1°C° 0 mm 1 mps 733 mmHg 92%
    19:00 -1°C° 0 mm 1 mps 733 mmHg 91%
    20:00 -2°C° 0 mm 1 mps 734 mmHg 91%
    21:00 -2°C° 0 mm 1 mps 734 mmHg 91%
    22:00 -2°C° 0 mm 1 mps 734 mmHg 91%
    23:00 -2°C° 0 mm 1 mps 734 mmHg 91%
    Show more